Location: Unspecified
(0.0000°N, 0.0000°E)
Time: 17:34:20
(UTC+00:00)

KKS-1 - Pass Details

Date: 11 December 2017
Orbit: 637 x 651 km, 98.3° (Epoch: 18 January)

Event Time Altitude Azimuth Distance (km) Brightness Sun altitude
Rises 04:03:54 0° 137° (SE) 2,967 ? -25.0°
Reaches altitude 10° 04:06:54 10° 115° (ESE) 2,054 ? -24.3°
Maximum altitude 04:09:37 16° 78° (ENE) 1,689 ? -23.7°
Drops below altitude 10° 04:12:19 10° 40° (NE) 2,047 ? -23.1°
Sets 04:15:17 0° 19° (NNE) 2,952 ? -22.4°
